This demonstration page uses our WeatherBlox Daily Observations layout. Learn more.

Hourly Observations for November 18, 2015

Temp ( °F °C ) Dew Point ( °F °C ) Humidity (%) Winds ( mph kmh ) Pressure ( in mb ) Visibility ( mi km ) Precip ( " mm )
12:15 am 00:15 Cloudy with Light Wintry Mix 32 0.2 31 -0.5 95 95 NNW 16 26 29.5 999 10 16.0934 0 0
12:35 am 00:35 Cloudy with Light Snow 32 0.2 31 -0.6 94 94 NNW 15 24 29.53 1000 10 16.0934 0 0
12:55 am 00:55 Cloudy with Light Snow 32 0.1 31 -0.6 95 95 NNW 17 28 29.5 999 7 11.26538 0 0
1:15 am 01:15 Cloudy with Light Snow 32 0 31 -0.7 95 95 NNW 15 24 29.5 999 3 4.82802 0.01 0.254
1:35 am 01:35 Cloudy with Light Wintry Mix 32 0 31 -0.7 95 95 NNW 13 20 29.5 999 7 11.26538 0.02 0.508
1:55 am 01:55 Cloudy with Light Wintry Mix 32 0 31 -0.8 94 94 NNW 12 19 29.5 999 5 8.0467 0.02 0.508
2:15 am 02:15 Cloudy with Light Snow 32 0 31 -0.8 94 94 NNW 13 20 29.5 999 1.75 2.816345 0.01 0.254
2:35 am 02:35 Cloudy with Light Snow 32 0 31 -0.7 95 95 NNW 12 19 29.5 999 4 6.43736 0.02 0.508
2:55 am 02:55 Cloudy with Light Snow 32 0 31 -0.8 94 94 NW 13 20 29.5 999 2 3.21868 0.03 0.762
3:15 am 03:15 Cloudy with Light Snow 32 0 31 -0.8 94 94 NNW 13 20 29.5 999 2.5 4.02335 0 0
3:35 am 03:35 Cloudy with Light Snow 32 0 30 -1 93 93 NNW 10 17 29.5 999 1.75 2.816345 0.01 0.254
3:55 am 03:55 Cloudy with Light Snow 32 0 30 -1 93 93 NNW 10 17 29.5 999 1.75 2.816345 0.02 0.508
4:15 am 04:15 Cloudy 32 0 30 -1 93 93 NW 8 13 29.5 999 10 16.0934 0 0
4:35 am 04:35 Cloudy with Light Snow 32 0 30 -1.1 92 92 NW 9 15 29.5 999 10 16.0934 0 0
4:55 am 04:55 Cloudy with Light Snow 32 0 30 -1.1 92 92 WNW 8 13 29.47 998 10 16.0934 0 0
5:15 am 05:15 Cloudy with Light Snow 32 0.1 30 -1.1 92 92 WNW 9 15 29.47 998 5 8.0467 0 0
5:35 am 05:35 Cloudy 32 0 30 -1.2 92 92 NW 9 15 29.47 998 10 16.0934 0 0
5:55 am 05:55 Cloudy 32 0.1 29 -1.4 90 90 NW 8 13 29.47 998 10 16.0934 0 0
6:15 am 06:15 Cloudy 32 0.1 29 -1.6 88 88 W 7 11 29.47 998 10 16.0934 0 0
6:35 am 06:35 Mostly Cloudy 32 0 28 -2 87 87 W 8 13 29.41 996 10 16.0934 0 0
6:55 am 06:55 Partly Cloudy 31 -0.6 27 -2.7 86 86 W 8 13 29.44 997 10 16.0934 0 0
7:15 am 07:15 Clear 31 -0.7 26 -3.4 82 82 W 9 15 29.47 998 10 16.0934 0 0
7:35 am 07:35 Sunny 30 -1.3 24 -4.3 80 80 W 9 15 29.47 998 10 16.0934 0 0
7:55 am 07:55 Sunny 29 -1.4 23 -5 77 77 W 8 13 29.47 998 10 16.0934 0 0
8:15 am 08:15 Sunny 31 -0.6 23 -5 72 72 W 8 13 29.47 998 10 16.0934 0 0
8:35 am 08:35 Sunny 32 0 23 -5 69 69 W 10 17 29.47 998 10 16.0934 0 0
8:55 am 08:55 Sunny 31 -0.6 23 -5.1 72 72 W 10 17 29.47 998 10 16.0934 0 0
9:15 am 09:15 Sunny 32 0 24 -4.4 73 73 W 9 15 29.47 998 10 16.0934 0 0
9:35 am 09:35 Sunny 32 0 25 -3.8 76 76 WSW 8 13 29.47 998 10 16.0934 0 0
9:55 am 09:55 Sunny 33 0.3 26 -3.1 78 78 WSW 12 19 29.47 998 10 16.0934 0 0
10:15 am 10:15 Sunny 32 0.2 27 -2.8 81 81 WSW 10 17 29.47 998 10 16.0934 0 0
10:35 am 10:35 Sunny 33 0.6 28 -2.4 81 81 WSW 10 17 29.44 997 10 16.0934 0 0
10:55 am 10:55 Sunny 35 1.4 29 -1.5 81 81 SW 13 20 29.44 997 10 16.0934 0 0
11:15 am 11:15 Partly Cloudy 35 1.5 30 -1.1 83 83 WSW 14 22 29.44 997 10 16.0934 0 0
11:35 am 11:35 Mostly Cloudy 36 2 30 -0.9 81 81 W 15 24 29.44 997 10 16.0934 0 0
11:55 am 11:55 Cloudy 37 2.5 31 -0.4 81 81 WSW 17 28 29.44 997 10 16.0934 0 0
12:15 pm 12:15 Cloudy 38 3.2 32 0.1 80 80 W 14 22 29.44 997 10 16.0934 0 0
12:35 pm 12:35 Cloudy 40 4.2 33 0.8 79 79 W 16 26 29.41 996 10 16.0934 0 0
12:55 pm 12:55 Partly Cloudy 40 4.6 34 1 78 78 W 14 22 29.44 997 10 16.0934 0 0
1:15 pm 13:15 Mostly Cloudy 40 4.5 34 1 78 78 W 14 22 29.44 997 10 16.0934 0 0
1:35 pm 13:35 Cloudy with Drizzle 41 5.1 35 1.7 79 79 W 16 26 29.44 997 10 16.0934 0 0
1:55 pm 13:55 Cloudy with Light Rain 42 5.6 36 2.3 80 80 WNW 15 24 29.44 997 10 16.0934 0 0
2:15 pm 14:15 Cloudy 43 6 37 2.6 79 79 W 12 19 29.47 998 10 16.0934 0 0
2:35 pm 14:35 Cloudy with Drizzle 45 7 38 3.2 77 77 W 15 24 29.47 998 10 16.0934 0 0
2:55 pm 14:55 Cloudy 46 7.5 38 3.3 75 75 W 17 28 29.47 998 10 16.0934 0 0
3:15 pm 15:15 Cloudy 45 7.3 37 3 74 74 WNW 12 19 29.5 999 10 16.0934 0 0
3:35 pm 15:35 Cloudy 46 7.5 37 2.8 72 72 NNW 10 17 29.5 999 10 16.0934 0 0
3:55 pm 15:55 Cloudy 44 6.8 38 3.1 78 78 NNW 5 7 29.53 1000 10 16.0934 0 0
4:15 pm 16:15 Cloudy 45 7.3 38 3.3 76 76 Calm 29.56 1001 10 16.0934 0 0
4:35 pm 16:35 Mostly Cloudy 45 7.2 39 3.9 80 80 Calm 29.56 1001 10 16.0934 0 0
4:55 pm 16:55 Partly Cloudy 44 6.9 38 3.6 80 80 W 5 7 29.59 1002 10 16.0934 0 0
5:15 pm 17:15 Partly Cloudy 44 6.5 38 3.2 80 80 W 8 13 29.62 1003 10 16.0934 0 0
5:35 pm 17:35 Mostly Cloudy 45 7 37 3 76 76 W 13 20 29.65 1004 10 16.0934 0 0
5:55 pm 17:55 Cloudy 45 7 37 2.7 74 74 NW 9 15 29.68 1005 10 16.0934 0 0
6:15 pm 18:15 Cloudy 45 7.4 37 2.5 71 71 WNW 10 17 29.71 1006 10 16.0934 0 0
6:35 pm 18:35 Cloudy 43 6.2 37 2.6 78 78 WNW 8 13 29.77 1008 10 16.0934 0 0
6:55 pm 18:55 Mostly Cloudy 42 5.7 36 2.1 78 78 NNW 5 7 29.77 1008 10 16.0934 0 0
7:15 pm 19:15 Mostly Cloudy 43 6 36 2 76 76 NW 12 19 29.83 1010 10 16.0934 0 0
7:35 pm 19:35 Cloudy 42 5.6 33 0.3 69 69 NNW 20 31 29.83 1010 10 16.0934 0 0
7:55 pm 19:55 Mostly Cloudy 40 4.7 29 -1.7 64 64 NNW 16 26 29.83 1010 10 16.0934 0 0
8:15 pm 20:15 Mostly Cloudy 40 4.5 28 -2.1 63 63 NNW 16 26 29.85 1011 10 16.0934 0 0
8:35 pm 20:35 Mostly Cloudy 39 4 28 -2 65 65 NW 15 24 29.88 1012 10 16.0934 0 0
8:55 pm 20:55 Partly Cloudy 38 3.6 28 -2.5 65 65 NW 15 24 29.91 1013 10 16.0934 0 0
9:15 pm 21:15 Clear 38 3.4 25 -4 59 59 NNW 16 26 29.94 1014 10 16.0934 0 0
9:35 pm 21:35 Clear 37 2.6 25 -3.8 63 63 NW 14 22 29.97 1015 10 16.0934 0 0
9:55 pm 21:55 Partly Cloudy 37 2.7 23 -5.1 57 57 NW 18 30 29.97 1015 10 16.0934 0 0
10:15 pm 22:15 Partly Cloudy 36 2.2 24 -4.6 61 61 NW 14 22 30.03 1017 10 16.0934 0 0
10:35 pm 22:35 Clear 35 1.5 25 -3.8 68 68 NW 16 26 30.06 1018 10 16.0934 0 0
10:55 pm 22:55 Clear 35 1.5 24 -4.5 65 65 WNW 12 19 30.06 1018 10 16.0934 0 0
11:15 pm 23:15 Clear 35 1.5 24 -4.7 64 64 NW 12 19 30.09 1019 10 16.0934 0 0
11:35 pm 23:35 Clear 34 1 23 -5.1 64 64 NW 10 17 30.09 1019 10 16.0934 0 0
11:55 pm 23:55 Clear 34 1 22 -5.5 62 62 NW 10 17 30.09 1019 10 16.0934 0 0

Powered by AerisWeather